Hourly Data Report for July 18, 2019

PITT MEADOWS CS
BRITISH COLUMBIA
Current Station Operator: ECCC - MSC

49°12'29.964" N
122°41'24.076" W
5.00 m
1106178
71775
WMM

Download Data

Hourly Data (July 2019)
Hourly Data Report for July 18, 2019
TIME
LST
Temp Definition
°C
Dew Point Definition
°C
Rel Hum Definition
%
Precip. Amount Definition
mm

Wind Dir Definition
10's deg

Wind Spd Definition
km/h
Visibility Definition
km
Stn Press Definition
kPa
Hmdx Definition


Wind Chill Definition


Weather Definition


00:00 16.1 12.0 77 0.0 18 8   101.07     LegendNANA
01:00 16.3 11.9 75 0.0 19 5   101.12     LegendNANA
02:00 16.0 11.7 76 0.0 21 4   101.16     LegendNANA
03:00 15.0 11.5 79 0.0 15 5   101.20     LegendNANA
04:00 14.9 11.2 78 0.0 14 5   101.25     LegendNANA
05:00 15.0 11.4 79 0.0 15 6   101.29     LegendNANA
06:00 15.0 11.2 78 0.0 19 7   101.35     LegendNANA
07:00 15.7 11.0 73 0.4 19 7   101.41     LegendNANA
08:00 16.9 11.4 70 0.1 22 10   101.46     LegendNANA
09:00 18.2 11.4 64 0.1 21 10   101.47     LegendNANA
10:00 18.1 9.1 56 0.1 24 6   101.50     LegendNANA
11:00 19.7 10.2 54 0.1 24 14   101.55     LegendNANA
12:00 19.5 8.8 50 0.1 21 11   101.57     LegendNANA
13:00 20.4 7.6 44 0.1 20 13   101.56     LegendNANA
14:00 21.3 6.8 39 0.0 22 12   101.57     LegendNANA
15:00 20.8 6.2 39 0.1 21 10   101.55     LegendNANA
16:00 21.2 6.4 38 0.2 22 11   101.52     LegendNANA
17:00 21.1 7.2 41 0.0 23 7   101.51     LegendNANA
18:00 20.3 7.7 44 0.0 25 10   101.51     LegendNANA
19:00 18.9 9.3 54 0.0 24 8   101.51     LegendNANA
20:00 17.1 11.1 68 0.0 26 16   101.53     LegendNANA
21:00 17.0 9.5 61 0.0 26 16   101.55     LegendNANA
22:00 16.2 9.3 64 0.0 22 5   101.54     LegendNANA
23:00 15.2 10.2 72 0.0 18 4   101.56     LegendNANA

Notes on Data Quality.

Legend

  • E = Estimated
  • M = Missing
  • NA = Not Available*
  • [empty] = Indicates an unobserved value
Date modified: